owner,sensor,date,latitude,longitude,air_pressure(mBar),qcFlag 
ADCP,ioos:station:wmo:42376:1,2010-05-06T00:00:00Z,29.1080,-87.9440,1012.6,11111222 
ADCP,ioos:station:wmo:42376:1,2010-05-06T00:20:00Z,29.1080,-87.9440,1012.6,11111222 
ADCP,ioos:station:wmo:42376:1,2010-05-06T00:40:00Z,29.1080,-87.9440,1012.6,11111222 
ADCP,ioos:station:wmo:42376:1,2010-05-06T01:00:00Z,29.1080,-87.9440,1012.6,11111222 
ADCP,ioos:station:wmo:42376:1,2010-05-06T01:20:00Z,29.1080,-87.9440,1012.6,11111222 
ADCP,ioos:station:wmo:42376:1,2010-05-06T01:40:00Z,29.1080,-87.9440,1012.7,11111222 
ADCP,ioos:station:wmo:42376:1,2010-05-06T02:00:00Z,29.1080,-87.9440,1012.9,11111222 
ADCP,ioos:station:wmo:42376:1,2010-05-06T02:20:00Z,29.1080,-87.9440,1012.9,11111222 
ADCP,ioos:station:wmo:42376:1,2010-05-06T02:40:00Z,29.1080,-87.9440,1013.1,11111222 
ADCP,ioos:station:wmo:42376:1,2010-05-06T03:00:00Z,29.1080,-87.9440,1013.5,11111222 
ADCP,ioos:station:wmo:42376:1,2010-05-06T03:20:00Z,29.1080,-87.9440,1013.5,11111222 
ADCP,ioos:station:wmo:42376:1,2010-05-06T03:40:00Z,29.1080,-87.9440,1013.8,11111222 
ADCP,ioos:station:wmo:42376:1,2010-05-06T04:00:00Z,29.1080,-87.9440,1014.2,11111222 
ADCP,ioos:station:wmo:42376:1,2010-05-06T04:20:00Z,29.1080,-87.9440,1014.2,11111222 
ADCP,ioos:station:wmo:42376:1,2010-05-06T04:40:00Z,29.1080,-87.9440,1014.2,11111222 
ADCP,ioos:station:wmo:42376:1,2010-05-06T05:00:00Z,29.1080,-87.9440,1014.2,11111222 
ADCP,ioos:station:wmo:42376:1,2010-05-06T05:20:00Z,29.1080,-87.9440,1014.2,11111222 
ADCP,ioos:station:wmo:42376:1,2010-05-06T05:40:00Z,29.1080,-87.9440,1014.2,11111222 
ADCP,ioos:station:wmo:42376:1,2010-05-06T06:00:00Z,29.1080,-87.9440,1014.3,11111222 
ADCP,ioos:station:wmo:42376:1,2010-05-06T06:20:00Z,29.1080,-87.9440,1014.3,11111222 
ADCP,ioos:station:wmo:42376:1,2010-05-06T06:40:00Z,29.1080,-87.9440,1014.2,11111222 
ADCP,ioos:station:wmo:42376:1,2010-05-06T07:00:00Z,29.1080,-87.9440,1013.8,11111222 
ADCP,ioos:station:wmo:42376:1,2010-05-06T07:20:00Z,29.1080,-87.9440,1013.8,11111222 
ADCP,ioos:station:wmo:42376:1,2010-05-06T07:40:00Z,29.1080,-87.9440,1013.5,11111222 
ADCP,ioos:station:wmo:42376:1,2010-05-06T08:00:00Z,29.1080,-87.9440,1013.1,11111222 
ADCP,ioos:station:wmo:42376:1,2010-05-06T08:20:00Z,29.1080,-87.9440,1013.1,11111222 
ADCP,ioos:station:wmo:42376:1,2010-05-06T08:40:00Z,29.1080,-87.9440,1012.9,11111222 
ADCP,ioos:station:wmo:42376:1,2010-05-06T09:00:00Z,29.1080,-87.9440,1013.0,11111222 
ADCP,ioos:station:wmo:42376:1,2010-05-06T09:20:00Z,29.1080,-87.9440,1013.0,11111222 
ADCP,ioos:station:wmo:42376:1,2010-05-06T09:40:00Z,29.1080,-87.9440,1013.1,11111222 
ADCP,ioos:station:wmo:42376:1,2010-05-06T10:00:00Z,29.1080,-87.9440,1013.2,11111222 
ADCP,ioos:station:wmo:42376:1,2010-05-06T10:20:00Z,29.1080,-87.9440,1013.2,11111222 
ADCP,ioos:station:wmo:42376:1,2010-05-06T10:40:00Z,29.1080,-87.9440,1013.3,11111222 
ADCP,ioos:station:wmo:42376:1,2010-05-06T11:00:00Z,29.1080,-87.9440,1013.5,11111222 
ADCP,ioos:station:wmo:42376:1,2010-05-06T11:20:00Z,29.1080,-87.9440,1013.5,11111222 
ADCP,ioos:station:wmo:42376:1,2010-05-06T11:40:00Z,29.1080,-87.9440,1013.5,11111222 
ADCP,ioos:station:wmo:42376:1,2010-05-06T12:00:00Z,29.1080,-87.9440,1013.7,11111222 
ADCP,ioos:station:wmo:42376:1,2010-05-06T12:20:00Z,29.1080,-87.9440,1013.7,11111222 
ADCP,ioos:station:wmo:42376:1,2010-05-06T12:40:00Z,29.1080,-87.9440,1013.9,11111222 
ADCP,ioos:station:wmo:42376:1,2010-05-06T13:00:00Z,29.1080,-87.9440,1014.1,11111222 
ADCP,ioos:station:wmo:42376:1,2010-05-06T13:20:00Z,29.1080,-87.9440,1014.1,11111222 
ADCP,ioos:station:wmo:42376:1,2010-05-06T13:40:00Z,29.1080,-87.9440,1014.2,11111222 
ADCP,ioos:station:wmo:42376:1,2010-05-06T14:40:00Z,29.1080,-87.9440,1014.3,11111222 
ADCP,ioos:station:wmo:42376:1,2010-05-06T15:00:00Z,29.1080,-87.9440,1014.5,11111222 
ADCP,ioos:station:wmo:42376:1,2010-05-06T15:20:00Z,29.1080,-87.9440,1014.5,11111222 
ADCP,ioos:station:wmo:42376:1,2010-05-06T16:20:00Z,29.1080,-87.9440,1015.1,11111222 
ADCP,ioos:station:wmo:42376:1,2010-05-06T16:40:00Z,29.1080,-87.9440,1015.3,11111222 
ADCP,ioos:station:wmo:42376:1,2010-05-06T17:00:00Z,29.1080,-87.9440,1015.5,11111222 
ADCP,ioos:station:wmo:42376:1,2010-05-06T17:20:00Z,29.1080,-87.9440,1015.5,11111222 
ADCP,ioos:station:wmo:42376:1,2010-05-06T17:40:00Z,29.1080,-87.9440,1015.6,11111222 
ADCP,ioos:station:wmo:42376:1,2010-05-06T18:20:00Z,29.1080,-87.9440,1015.5,11111222 
ADCP,ioos:station:wmo:42376:1,2010-05-06T18:40:00Z,29.1080,-87.9440,1015.4,11111222 
ADCP,ioos:station:wmo:42376:1,2010-05-06T19:00:00Z,29.1080,-87.9440,1015.3,11111222 
ADCP,ioos:station:wmo:42376:1,2010-05-06T19:20:00Z,29.1080,-87.9440,1015.3,11111222 
ADCP,ioos:station:wmo:42376:1,2010-05-06T19:40:00Z,29.1080,-87.9440,1015.0,11111222 
ADCP,ioos:station:wmo:42376:1,2010-05-06T20:00:00Z,29.1080,-87.9440,1014.6,11111222 
ADCP,ioos:station:wmo:42376:1,2010-05-06T20:20:00Z,29.1080,-87.9440,1014.6,11111222 
ADCP,ioos:station:wmo:42376:1,2010-05-06T20:40:00Z,29.1080,-87.9440,1014.5,11111222 
ADCP,ioos:station:wmo:42376:1,2010-05-06T21:00:00Z,29.1080,-87.9440,1014.3,11111222 
ADCP,ioos:station:wmo:42376:1,2010-05-06T21:20:00Z,29.1080,-87.9440,1014.3,11111222 
ADCP,ioos:station:wmo:42376:1,2010-05-06T21:40:00Z,29.1080,-87.9440,1014.1,11111222 
ADCP,ioos:station:wmo:42376:1,2010-05-06T22:00:00Z,29.1080,-87.9440,1013.8,11111222 
ADCP,ioos:station:wmo:42376:1,2010-05-06T22:20:00Z,29.1080,-87.9440,1013.8,11111222 
ADCP,ioos:station:wmo:42376:1,2010-05-06T22:40:00Z,29.1080,-87.9440,1013.5,11111222 
ADCP,ioos:station:wmo:42376:1,2010-05-06T23:00:00Z,29.1080,-87.9440,1013.5,11111222 
ADCP,ioos:station:wmo:42376:1,2010-05-06T23:20:00Z,29.1080,-87.9440,1013.5,11111222 
ADCP,ioos:station:wmo:42376:1,2010-05-07T00:00:00Z,29.1080,-87.9440,1013.3,11111222 
ADCP,ioos:station:wmo:42376:1,2010-05-07T00:20:00Z,29.1080,-87.9440,1013.3,11111222 
ADCP,ioos:station:wmo:42376:1,2010-05-07T00:40:00Z,29.1080,-87.9440,1013.2,11111222 
ADCP,ioos:station:wmo:42376:1,2010-05-07T01:00:00Z,29.1080,-87.9440,1013.2,11111222 
ADCP,ioos:station:wmo:42376:1,2010-05-07T01:20:00Z,29.1080,-87.9440,1013.2,11111222 
ADCP,ioos:station:wmo:42376:1,2010-05-07T01:40:00Z,29.1080,-87.9440,1013.4,11111222 
ADCP,ioos:station:wmo:42376:1,2010-05-07T02:20:00Z,29.1080,-87.9440,1013.6,11111222 
ADCP,ioos:station:wmo:42376:1,2010-05-07T02:40:00Z,29.1080,-87.9440,1013.8,11111222 
ADCP,ioos:station:wmo:42376:1,2010-05-07T03:00:00Z,29.1080,-87.9440,1014.1,11111222 
ADCP,ioos:station:wmo:42376:1,2010-05-07T03:20:00Z,29.1080,-87.9440,1014.1,11111222 
ADCP,ioos:station:wmo:42376:1,2010-05-07T03:40:00Z,29.1080,-87.9440,1014.3,11111222 
ADCP,ioos:station:wmo:42376:1,2010-05-07T04:00:00Z,29.1080,-87.9440,1014.4,11111222 
ADCP,ioos:station:wmo:42376:1,2010-05-07T04:20:00Z,29.1080,-87.9440,1014.4,11111222 
ADCP,ioos:station:wmo:42376:1,2010-05-07T04:40:00Z,29.1080,-87.9440,1014.3,11111222 
ADCP,ioos:station:wmo:42376:1,2010-05-07T05:00:00Z,29.1080,-87.9440,1014.2,11111222 
ADCP,ioos:station:wmo:42376:1,2010-05-07T05:40:00Z,29.1080,-87.9440,1014.0,11111222 
ADCP,ioos:station:wmo:42376:1,2010-05-07T06:00:00Z,29.1080,-87.9440,1013.7,11111222 
ADCP,ioos:station:wmo:42376:1,2010-05-07T06:20:00Z,29.1080,-87.9440,1013.7,11111222 
ADCP,ioos:station:wmo:42376:1,2010-05-07T07:00:00Z,29.1080,-87.9440,1013.3,11111222 
ADCP,ioos:station:wmo:42376:1,2010-05-07T07:20:00Z,29.1080,-87.9440,1013.3,11111222 
ADCP,ioos:station:wmo:42376:1,2010-05-07T07:40:00Z,29.1080,-87.9440,1013.3,11111222 
ADCP,ioos:station:wmo:42376:1,2010-05-07T08:00:00Z,29.1080,-87.9440,1013.1,11111222 
ADCP,ioos:station:wmo:42376:1,2010-05-07T08:20:00Z,29.1080,-87.9440,1013.1,11111222 
ADCP,ioos:station:wmo:42376:1,2010-05-07T08:40:00Z,29.1080,-87.9440,1012.8,11111222 
ADCP,ioos:station:wmo:42376:1,2010-05-07T09:00:00Z,29.1080,-87.9440,1012.6,11111222 
ADCP,ioos:station:wmo:42376:1,2010-05-07T09:20:00Z,29.1080,-87.9440,1012.6,11111222 
ADCP,ioos:station:wmo:42376:1,2010-05-07T09:40:00Z,29.1080,-87.9440,1012.7,11111222 
ADCP,ioos:station:wmo:42376:1,2010-05-07T10:00:00Z,29.1080,-87.9440,1012.6,11111222 
ADCP,ioos:station:wmo:42376:1,2010-05-07T10:20:00Z,29.1080,-87.9440,1012.6,11111222 
ADCP,ioos:station:wmo:42376:1,2010-05-07T10:40:00Z,29.1080,-87.9440,1012.8,11111222 
ADCP,ioos:station:wmo:42376:1,2010-05-07T11:00:00Z,29.1080,-87.9440,1012.9,11111222 
ADCP,ioos:station:wmo:42376:1,2010-05-07T11:20:00Z,29.1080,-87.9440,1012.9,11111222 
ADCP,ioos:station:wmo:42376:1,2010-05-07T11:40:00Z,29.1080,-87.9440,1013.1,11111222 
ADCP,ioos:station:wmo:42376:1,2010-05-07T12:00:00Z,29.1080,-87.9440,1013.4,11111222 
ADCP,ioos:station:wmo:42376:1,2010-05-07T12:20:00Z,29.1080,-87.9440,1013.4,11111222 
ADCP,ioos:station:wmo:42376:1,2010-05-07T12:40:00Z,29.1080,-87.9440,1013.6,11111222 
ADCP,ioos:station:wmo:42376:1,2010-05-07T13:00:00Z,29.1080,-87.9440,1013.9,11111222 
ADCP,ioos:station:wmo:42376:1,2010-05-07T13:20:00Z,29.1080,-87.9440,1013.9,11111222 
ADCP,ioos:station:wmo:42376:1,2010-05-07T13:40:00Z,29.1080,-87.9440,1014.2,11111222 
ADCP,ioos:station:wmo:42376:1,2010-05-07T14:00:00Z,29.1080,-87.9440,1014.2,11111222 
ADCP,ioos:station:wmo:42376:1,2010-05-07T14:20:00Z,29.1080,-87.9440,1014.2,11111222 
ADCP,ioos:station:wmo:42376:1,2010-05-07T14:40:00Z,29.1080,-87.9440,1014.2,11111222 
ADCP,ioos:station:wmo:42376:1,2010-05-07T15:00:00Z,29.1080,-87.9440,1014.4,11111222 
ADCP,ioos:station:wmo:42376:1,2010-05-07T15:20:00Z,29.1080,-87.9440,1014.4,11111222 
ADCP,ioos:station:wmo:42376:1,2010-05-07T16:00:00Z,29.1080,-87.9440,1014.9,11111222 
ADCP,ioos:station:wmo:42376:1,2010-05-07T16:20:00Z,29.1080,-87.9440,1014.9,11111222 
ADCP,ioos:station:wmo:42376:1,2010-05-07T16:40:00Z,29.1080,-87.9440,1015.0,11111222 
ADCP,ioos:station:wmo:42376:1,2010-05-07T17:00:00Z,29.1080,-87.9440,1015.1,11111222 
ADCP,ioos:station:wmo:42376:1,2010-05-07T17:20:00Z,29.1080,-87.9440,1015.1,11111222 
ADCP,ioos:station:wmo:42376:1,2010-05-07T17:40:00Z,29.1080,-87.9440,1015.2,11111222 
ADCP,ioos:station:wmo:42376:1,2010-05-07T18:00:00Z,29.1080,-87.9440,1015.3,11111222 
ADCP,ioos:station:wmo:42376:1,2010-05-07T18:20:00Z,29.1080,-87.9440,1015.3,11111222 
ADCP,ioos:station:wmo:42376:1,2010-05-07T18:40:00Z,29.1080,-87.9440,1015.4,11111222 
ADCP,ioos:station:wmo:42376:1,2010-05-07T19:00:00Z,29.1080,-87.9440,1015.4,11111222 
ADCP,ioos:station:wmo:42376:1,2010-05-07T19:20:00Z,29.1080,-87.9440,1015.4,11111222 
ADCP,ioos:station:wmo:42376:1,2010-05-07T19:40:00Z,29.1080,-87.9440,1015.4,11111222 
ADCP,ioos:station:wmo:42376:1,2010-05-07T20:00:00Z,29.1080,-87.9440,1015.2,11111222 
ADCP,ioos:station:wmo:42376:1,2010-05-07T20:20:00Z,29.1080,-87.9440,1015.2,11111222 
ADCP,ioos:station:wmo:42376:1,2010-05-07T20:40:00Z,29.1080,-87.9440,1015.1,11111222 
ADCP,ioos:station:wmo:42376:1,2010-05-07T21:00:00Z,29.1080,-87.9440,1014.9,11111222 
ADCP,ioos:station:wmo:42376:1,2010-05-07T21:20:00Z,29.1080,-87.9440,1014.9,11111222 
ADCP,ioos:station:wmo:42376:1,2010-05-07T22:00:00Z,29.1080,-87.9440,1014.7,11111222 
ADCP,ioos:station:wmo:42376:1,2010-05-07T22:20:00Z,29.1080,-87.9440,1014.7,11111222 
ADCP,ioos:station:wmo:42376:1,2010-05-07T22:40:00Z,29.1080,-87.9440,1014.8,11111222 
ADCP,ioos:station:wmo:42376:1,2010-05-07T23:00:00Z,29.1080,-87.9440,1014.9,11111222 
ADCP,ioos:station:wmo:42376:1,2010-05-07T23:20:00Z,29.1080,-87.9440,1014.9,11111222 
ADCP,ioos:station:wmo:42376:1,2010-05-08T00:00:00Z,29.1080,-87.9440,1014.9,11111222 
ADCP,ioos:station:wmo:42376:1,2010-05-08T00:20:00Z,29.1080,-87.9440,1014.9,11111222 
ADCP,ioos:station:wmo:42376:1,2010-05-08T00:40:00Z,29.1080,-87.9440,1015.1,11111222 
ADCP,ioos:station:wmo:42376:1,2010-05-08T01:00:00Z,29.1080,-87.9440,1015.2,11111222 
ADCP,ioos:station:wmo:42376:1,2010-05-08T01:20:00Z,29.1080,-87.9440,1015.2,11111222 
ADCP,ioos:station:wmo:42376:1,2010-05-08T01:40:00Z,29.1080,-87.9440,1015.1,11111222 
ADCP,ioos:station:wmo:42376:1,2010-05-08T02:00:00Z,29.1080,-87.9440,1015.0,11111222 
ADCP,ioos:station:wmo:42376:1,2010-05-08T02:20:00Z,29.1080,-87.9440,1015.0,11111222 
ADCP,ioos:station:wmo:42376:1,2010-05-08T02:40:00Z,29.1080,-87.9440,1015.1,11111222 
ADCP,ioos:station:wmo:42376:1,2010-05-08T03:00:00Z,29.1080,-87.9440,1015.3,11111222 
ADCP,ioos:station:wmo:42376:1,2010-05-08T03:20:00Z,29.1080,-87.9440,1015.3,11111222 
ADCP,ioos:station:wmo:42376:1,2010-05-08T03:40:00Z,29.1080,-87.9440,1015.5,11111222 
ADCP,ioos:station:wmo:42376:1,2010-05-08T04:00:00Z,29.1080,-87.9440,1015.8,11111222 
ADCP,ioos:station:wmo:42376:1,2010-05-08T04:20:00Z,29.1080,-87.9440,1015.8,11111222 
ADCP,ioos:station:wmo:42376:1,2010-05-08T04:40:00Z,29.1080,-87.9440,1015.9,11111222 
ADCP,ioos:station:wmo:42376:1,2010-05-08T05:00:00Z,29.1080,-87.9440,1015.9,11111222 
ADCP,ioos:station:wmo:42376:1,2010-05-08T05:20:00Z,29.1080,-87.9440,1015.9,11111222 
ADCP,ioos:station:wmo:42376:1,2010-05-08T05:40:00Z,29.1080,-87.9440,1015.8,11111222 
ADCP,ioos:station:wmo:42376:1,2010-05-08T06:00:00Z,29.1080,-87.9440,1015.7,11111222 
ADCP,ioos:station:wmo:42376:1,2010-05-08T06:20:00Z,29.1080,-87.9440,1015.7,11111222 
ADCP,ioos:station:wmo:42376:1,2010-05-08T06:40:00Z,29.1080,-87.9440,1015.7,11111222 
ADCP,ioos:station:wmo:42376:1,2010-05-08T07:00:00Z,29.1080,-87.9440,1015.7,11111222 
ADCP,ioos:station:wmo:42376:1,2010-05-08T07:20:00Z,29.1080,-87.9440,1015.7,11111222 
ADCP,ioos:station:wmo:42376:1,2010-05-08T07:40:00Z,29.1080,-87.9440,1015.6,11111222 
ADCP,ioos:station:wmo:42376:1,2010-05-08T08:00:00Z,29.1080,-87.9440,1015.4,11111222 
ADCP,ioos:station:wmo:42376:1,2010-05-08T08:20:00Z,29.1080,-87.9440,1015.4,11111222 
ADCP,ioos:station:wmo:42376:1,2010-05-08T08:40:00Z,29.1080,-87.9440,1015.2,11111222 
ADCP,ioos:station:wmo:42376:1,2010-05-08T09:20:00Z,29.1080,-87.9440,1015.0,11111222 
ADCP,ioos:station:wmo:42376:1,2010-05-08T09:40:00Z,29.1080,-87.9440,1014.9,11111222 
ADCP,ioos:station:wmo:42376:1,2010-05-08T10:20:00Z,29.1080,-87.9440,1015.0,11111222 
ADCP,ioos:station:wmo:42376:1,2010-05-08T10:40:00Z,29.1080,-87.9440,1015.4,11111222 
ADCP,ioos:station:wmo:42376:1,2010-05-08T11:00:00Z,29.1080,-87.9440,1015.6,11111222 
ADCP,ioos:station:wmo:42376:1,2010-05-08T11:20:00Z,29.1080,-87.9440,1015.6,11111222 
ADCP,ioos:station:wmo:42376:1,2010-05-08T11:40:00Z,29.1080,-87.9440,1015.7,11111222 
ADCP,ioos:station:wmo:42376:1,2010-05-08T12:00:00Z,29.1080,-87.9440,1016.0,11111222 
ADCP,ioos:station:wmo:42376:1,2010-05-08T12:20:00Z,29.1080,-87.9440,1016.0,11111222 
ADCP,ioos:station:wmo:42376:1,2010-05-08T12:40:00Z,29.1080,-87.9440,1016.2,11111222 
ADCP,ioos:station:wmo:42376:1,2010-05-08T13:00:00Z,29.1080,-87.9440,1016.7,11111222 
ADCP,ioos:station:wmo:42376:1,2010-05-08T13:20:00Z,29.1080,-87.9440,1016.7,11111222 
ADCP,ioos:station:wmo:42376:1,2010-05-08T13:40:00Z,29.1080,-87.9440,1016.9,11111222 
ADCP,ioos:station:wmo:42376:1,2010-05-08T14:00:00Z,29.1080,-87.9440,1016.8,11111222 
ADCP,ioos:station:wmo:42376:1,2010-05-08T14:20:00Z,29.1080,-87.9440,1016.8,11111222 
ADCP,ioos:station:wmo:42376:1,2010-05-08T14:40:00Z,29.1080,-87.9440,1016.9,11111222 
ADCP,ioos:station:wmo:42376:1,2010-05-08T15:00:00Z,29.1080,-87.9440,1017.1,11111222 
ADCP,ioos:station:wmo:42376:1,2010-05-08T15:20:00Z,29.1080,-87.9440,1017.1,11111222 
ADCP,ioos:station:wmo:42376:1,2010-05-08T15:40:00Z,29.1080,-87.9440,1017.7,11111222 
ADCP,ioos:station:wmo:42376:1,2010-05-08T16:00:00Z,29.1080,-87.9440,1017.9,11111222 
ADCP,ioos:station:wmo:42376:1,2010-05-08T16:20:00Z,29.1080,-87.9440,1017.9,11111222 
ADCP,ioos:station:wmo:42376:1,2010-05-08T16:40:00Z,29.1080,-87.9440,1018.0,11111222 
ADCP,ioos:station:wmo:42376:1,2010-05-08T17:00:00Z,29.1080,-87.9440,1018.1,11111222 
ADCP,ioos:station:wmo:42376:1,2010-05-08T17:20:00Z,29.1080,-87.9440,1018.1,11111222 
ADCP,ioos:station:wmo:42376:1,2010-05-08T17:40:00Z,29.1080,-87.9440,1018.1,11111222 
ADCP,ioos:station:wmo:42376:1,2010-05-08T18:00:00Z,29.1080,-87.9440,1018.0,11111222 
ADCP,ioos:station:wmo:42376:1,2010-05-08T18:20:00Z,29.1080,-87.9440,1018.0,11111222 
ADCP,ioos:station:wmo:42376:1,2010-05-08T18:40:00Z,29.1080,-87.9440,1017.7,11111222 
ADCP,ioos:station:wmo:42376:1,2010-05-08T19:00:00Z,29.1080,-87.9440,1017.4,11111222 
ADCP,ioos:station:wmo:42376:1,2010-05-08T19:20:00Z,29.1080,-87.9440,1017.4,11111222 
ADCP,ioos:station:wmo:42376:1,2010-05-08T19:40:00Z,29.1080,-87.9440,1017.4,11111222 
ADCP,ioos:station:wmo:42376:1,2010-05-08T20:00:00Z,29.1080,-87.9440,1017.3,11111222 
ADCP,ioos:station:wmo:42376:1,2010-05-08T20:20:00Z,29.1080,-87.9440,1017.3,11111222 
ADCP,ioos:station:wmo:42376:1,2010-05-08T20:40:00Z,29.1080,-87.9440,1017.0,11111222 
ADCP,ioos:station:wmo:42376:1,2010-05-08T21:00:00Z,29.1080,-87.9440,1016.6,11111222 
ADCP,ioos:station:wmo:42376:1,2010-05-08T21:20:00Z,29.1080,-87.9440,1016.6,11111222 
ADCP,ioos:station:wmo:42376:1,2010-05-08T21:40:00Z,29.1080,-87.9440,1016.5,11111222 
ADCP,ioos:station:wmo:42376:1,2010-05-08T22:00:00Z,29.1080,-87.9440,1016.5,11111222 
ADCP,ioos:station:wmo:42376:1,2010-05-08T22:20:00Z,29.1080,-87.9440,1016.5,11111222 
ADCP,ioos:station:wmo:42376:1,2010-05-08T22:40:00Z,29.1080,-87.9440,1016.6,11111222 
ADCP,ioos:station:wmo:42376:1,2010-05-08T23:00:00Z,29.1080,-87.9440,1016.5,11111222 
ADCP,ioos:station:wmo:42376:1,2010-05-08T23:20:00Z,29.1080,-87.9440,1016.5,11111222 
ADCP,ioos:station:wmo:42376:1,2010-05-08T23:40:00Z,29.1080,-87.9440,1016.6,11111222 
ADCP,ioos:station:wmo:42376:1,2010-05-09T00:00:00Z,29.1080,-87.9440,1016.6,11111222 
ADCP,ioos:station:wmo:42376:1,2010-05-09T00:20:00Z,29.1080,-87.9440,1016.6,11111222 
ADCP,ioos:station:wmo:42376:1,2010-05-09T00:40:00Z,29.1080,-87.9440,1016.9,11111222 
ADCP,ioos:station:wmo:42376:1,2010-05-09T01:00:00Z,29.1080,-87.9440,1017.3,11111222 
ADCP,ioos:station:wmo:42376:1,2010-05-09T01:20:00Z,29.1080,-87.9440,1017.3,11111222 
ADCP,ioos:station:wmo:42376:1,2010-05-09T01:40:00Z,29.1080,-87.9440,1017.5,11111222 
ADCP,ioos:station:wmo:42376:1,2010-05-10T14:20:00Z,29.1080,-87.9440,1019.5,11111222 
ADCP,ioos:station:wmo:42376:1,2010-05-10T15:20:00Z,29.1080,-87.9440,1019.6,11111222 
ADCP,ioos:station:wmo:42376:1,2010-05-10T15:40:00Z,29.1080,-87.9440,1019.5,11111222 
ADCP,ioos:station:wmo:42376:1,2010-05-10T16:00:00Z,29.1080,-87.9440,1019.5,11111222 
ADCP,ioos:station:wmo:42376:1,2010-05-10T16:20:00Z,29.1080,-87.9440,1019.5,11111222 
ADCP,ioos:station:wmo:42376:1,2010-05-10T16:40:00Z,29.1080,-87.9440,1019.6,11111222 
ADCP,ioos:station:wmo:42376:1,2010-05-10T17:00:00Z,29.1080,-87.9440,1019.5,11111222 
ADCP,ioos:station:wmo:42376:1,2010-05-10T17:20:00Z,29.1080,-87.9440,1019.5,11111222 
ADCP,ioos:station:wmo:42376:1,2010-05-10T17:40:00Z,29.1080,-87.9440,1019.6,11111222 
ADCP,ioos:station:wmo:42376:1,2010-05-10T18:00:00Z,29.1080,-87.9440,1019.5,11111222 
ADCP,ioos:station:wmo:42376:1,2010-05-10T18:20:00Z,29.1080,-87.9440,1019.5,11111222 
ADCP,ioos:station:wmo:42376:1,2010-05-10T18:40:00Z,29.1080,-87.9440,1019.3,11111222 
ADCP,ioos:station:wmo:42376:1,2010-05-10T19:00:00Z,29.1080,-87.9440,1018.9,11111222 
ADCP,ioos:station:wmo:42376:1,2010-05-10T19:20:00Z,29.1080,-87.9440,1018.9,11111222 
ADCP,ioos:station:wmo:42376:1,2010-05-10T19:40:00Z,29.1080,-87.9440,1018.7,11111222 
ADCP,ioos:station:wmo:42376:1,2010-05-10T20:00:00Z,29.1080,-87.9440,1018.8,11111222 
ADCP,ioos:station:wmo:42376:1,2010-05-10T20:40:00Z,29.1080,-87.9440,1018.6,11111222 
ADCP,ioos:station:wmo:42376:1,2010-05-10T21:00:00Z,29.1080,-87.9440,1018.2,11111222 
ADCP,ioos:station:wmo:42376:1,2010-05-10T21:20:00Z,29.1080,-87.9440,1018.2,11111222 
ADCP,ioos:station:wmo:42376:1,2010-05-10T21:40:00Z,29.1080,-87.9440,1018.1,11111222 
ADCP,ioos:station:wmo:42376:1,2010-05-10T22:00:00Z,29.1080,-87.9440,1017.8,11111222 
ADCP,ioos:station:wmo:42376:1,2010-05-10T22:20:00Z,29.1080,-87.9440,1017.8,11111222 
ADCP,ioos:station:wmo:42376:1,2010-05-10T22:40:00Z,29.1080,-87.9440,1017.5,11111222 
ADCP,ioos:station:wmo:42376:1,2010-05-10T23:00:00Z,29.1080,-87.9440,1017.5,11111222 
ADCP,ioos:station:wmo:42376:1,2010-05-10T23:20:00Z,29.1080,-87.9440,1017.5,11111222 
ADCP,ioos:station:wmo:42376:1,2010-05-10T23:40:00Z,29.1080,-87.9440,1017.8,11111222 
ADCP,ioos:station:wmo:42376:1,2010-05-11T00:20:00Z,29.1080,-87.9440,1017.7,11111222 
ADCP,ioos:station:wmo:42376:1,2010-05-11T00:40:00Z,29.1080,-87.9440,1017.6,11111222 
ADCP,ioos:station:wmo:42376:1,2010-05-11T01:00:00Z,29.1080,-87.9440,1017.6,11111222 
ADCP,ioos:station:wmo:42376:1,2010-05-11T01:40:00Z,29.1080,-87.9440,1017.7,11111222 
ADCP,ioos:station:wmo:42376:1,2010-05-11T02:00:00Z,29.1080,-87.9440,1017.7,11111222 
ADCP,ioos:station:wmo:42376:1,2010-05-11T02:40:00Z,29.1080,-87.9440,1017.8,11111222 
ADCP,ioos:station:wmo:42376:1,2010-05-11T03:00:00Z,29.1080,-87.9440,1017.9,11111222 
ADCP,ioos:station:wmo:42376:1,2010-05-11T03:20:00Z,29.1080,-87.9440,1017.9,11111222 
ADCP,ioos:station:wmo:42376:1,2010-05-11T03:40:00Z,29.1080,-87.9440,1017.9,11111222 
ADCP,ioos:station:wmo:42376:1,2010-05-11T04:00:00Z,29.1080,-87.9440,1018.0,11111222 
ADCP,ioos:station:wmo:42376:1,2010-05-11T04:40:00Z,29.1080,-87.9440,1017.8,11111222 
ADCP,ioos:station:wmo:42376:1,2010-05-11T05:40:00Z,29.1080,-87.9440,1017.1,11111222 
ADCP,ioos:station:wmo:42376:1,2010-05-11T06:00:00Z,29.1080,-87.9440,1016.3,11111222 
ADCP,ioos:station:wmo:42376:1,2010-05-11T06:20:00Z,29.1080,-87.9440,1016.3,11111222 
ADCP,ioos:station:wmo:42376:1,2010-05-11T06:40:00Z,29.1080,-87.9440,1016.0,11111222 
ADCP,ioos:station:wmo:42376:1,2010-05-11T07:00:00Z,29.1080,-87.9440,1015.8,11111222 
ADCP,ioos:station:wmo:42376:1,2010-05-11T07:20:00Z,29.1080,-87.9440,1015.8,11111222 
ADCP,ioos:station:wmo:42376:1,2010-05-11T07:40:00Z,29.1080,-87.9440,1015.7,11111222 
ADCP,ioos:station:wmo:42376:1,2010-05-11T08:00:00Z,29.1080,-87.9440,1015.7,11111222 
ADCP,ioos:station:wmo:42376:1,2010-05-11T08:20:00Z,29.1080,-87.9440,1015.7,11111222 
ADCP,ioos:station:wmo:42376:1,2010-05-11T08:40:00Z,29.1080,-87.9440,1015.6,11111222 
ADCP,ioos:station:wmo:42376:1,2010-05-11T09:00:00Z,29.1080,-87.9440,1015.8,11111222 
ADCP,ioos:station:wmo:42376:1,2010-05-11T09:20:00Z,29.1080,-87.9440,1015.8,11111222 
ADCP,ioos:station:wmo:42376:1,2010-05-11T09:40:00Z,29.1080,-87.9440,1015.9,11111222 
ADCP,ioos:station:wmo:42376:1,2010-05-11T10:00:00Z,29.1080,-87.9440,1016.3,11111222 
ADCP,ioos:station:wmo:42376:1,2010-05-11T10:20:00Z,29.1080,-87.9440,1016.3,11111222 
ADCP,ioos:station:wmo:42376:1,2010-05-11T10:40:00Z,29.1080,-87.9440,1016.7,11111222 
ADCP,ioos:station:wmo:42376:1,2010-05-11T11:00:00Z,29.1080,-87.9440,1016.4,11111222 
ADCP,ioos:station:wmo:42376:1,2010-05-11T11:40:00Z,29.1080,-87.9440,1016.6,11111222 
ADCP,ioos:station:wmo:42376:1,2010-05-11T12:00:00Z,29.1080,-87.9440,1016.5,11111222 
ADCP,ioos:station:wmo:42376:1,2010-05-11T12:20:00Z,29.1080,-87.9440,1016.5,11111222 
ADCP,ioos:station:wmo:42376:1,2010-05-11T12:40:00Z,29.1080,-87.9440,1016.7,11111222 
ADCP,ioos:station:wmo:42376:1,2010-05-11T13:00:00Z,29.1080,-87.9440,1017.1,11111222 
ADCP,ioos:station:wmo:42376:1,2010-05-11T13:20:00Z,29.1080,-87.9440,1017.1,11111222 
ADCP,ioos:station:wmo:42376:1,2010-05-11T13:40:00Z,29.1080,-87.9440,1017.2,11111222 
ADCP,ioos:station:wmo:42376:1,2010-05-11T14:00:00Z,29.1080,-87.9440,1017.6,11111222 
ADCP,ioos:station:wmo:42376:1,2010-05-11T14:20:00Z,29.1080,-87.9440,1017.6,11111222 
ADCP,ioos:station:wmo:42376:1,2010-05-11T15:00:00Z,29.1080,-87.9440,1018.3,11111222 
ADCP,ioos:station:wmo:42376:1,2010-05-11T15:20:00Z,29.1080,-87.9440,1018.3,11111222 
ADCP,ioos:station:wmo:42376:1,2010-05-11T15:40:00Z,29.1080,-87.9440,1018.4,11111222 
ADCP,ioos:station:wmo:42376:1,2010-05-11T16:00:00Z,29.1080,-87.9440,1018.8,11111222 
ADCP,ioos:station:wmo:42376:1,2010-05-11T16:20:00Z,29.1080,-87.9440,1018.8,11111222 
ADCP,ioos:station:wmo:42376:1,2010-05-11T16:40:00Z,29.1080,-87.9440,1019.2,11111222 
ADCP,ioos:station:wmo:42376:1,2010-05-11T17:00:00Z,29.1080,-87.9440,1019.4,11111222 
ADCP,ioos:station:wmo:42376:1,2010-05-11T17:20:00Z,29.1080,-87.9440,1019.4,11111222 
ADCP,ioos:station:wmo:42376:1,2010-05-11T17:40:00Z,29.1080,-87.9440,1019.6,11111222 
ADCP,ioos:station:wmo:42376:1,2010-05-11T18:00:00Z,29.1080,-87.9440,1019.7,11111222 